RH
57 53 53 51 53 50 51 53 52 54 54 54 62 71 93 90 88 86 86 77 66 68
58 57 57 56 57 52 49 49 53 53 54 56 53 58 84 96 95 93 87 85 81 72
55 56 58 56 58 59 54 52 54 57 56 55 56 55 62 83 89 92 94 92 88 83
55 56 56 63 57 58 58 56 55 54 57 57 57 63 61 66 76 85 88 90 91 87
54 58 61 64 65 62 61 58 55 54 53 54 61 63 68 66 70 79 85 87 88 87
65 66 67 66 65 64 64 61 60 59 63 62 67 64 61 61 62 75 75 78 90 90
68 66 64 62 64 64 64 65 63 62 63 67 70 71 64 64 65 66 76 76 80 84
88 86 78 64 60 61 61 62 64 67 67 67 69 70 76 70 71 73 73 73 73 76
91 90 93 86 78 73 71 77 84 90 85 81 77 83 87 80 80 83 85 83 81 78
91 92 94 94 94 97 98 95 95 96 94 97 98 98 96 98 95 97 95 92 92 96
92 93 93 92 95 94 94 95 95 96 94 94 96 98 100 100 98 99 99 99 98 98
88 87 90 93 95 94 93 94 94 94 93 94 96 96 97 95 96 96 98 97 95 96
70 72 79 87 91 89 89 91 89 89 89 89 90 92 92 88 88 93 92 93 92 96
62 64 59 65 68 70 76 78 82 83 79 78 83 84 84 85 84 90 91 91 92 92
Wind_Speed
19 12 13 16 12 12 12 11 15 15 15 16 17 15 8 13 14 15 15 19 16 11
16 18 14 16 14 12 13 11 15 15 15 15 15 17 11 9 9 10 13 13 11 10
17 17 16 15 16 16 14 15 14 15 14 14 14 17 16 12 13 13 11 10 13 10
15 17 17 15 16 15 15 16 16 15 16 16 16 15 16 16 16 16 14 13 14 16
13 13 15 15 16 16 17 16 16 16 17 16 17 17 15 17 15 17 15 15 16 18
12 13 15 15 15 15 15 15 15 15 15 16 15 17 18 19 18 15 16 17 16 15
9 12 13 14 15 15 15 15 16 16 17 17 16 16 17 17 17 17 16 18 18 17
10 8 12 15 14 14 15 14 16 15 17 16 14 13 16 19 18 18 18 19 18 18
11 10 6 10 13 13 12 10 11 12 14 14 13 16 19 19 15 14 15 16 16 16
13 13 13 9 10 10 7 10 9 8 4 6 6 17 16 13 9 8 10 13 12 11
16 16 15 17 14 15 12 12 12 11 10 16 15 19 7 8 5 4 1 3 6 7
17 17 16 18 14 14 11 14 11 12 14 20 20 27 23 15 10 9 10 10 12 10
14 15 16 15 14 11 10 12 9 14 17 23 18 27 27 17 8 10 8 8 9 16
15 14 14 13 11 11 10 10 12 13 13 16 19 18 26 24 11 8 7 7 7 6
Wind_Direction
214 215 216 215 212 210 207 207 207 212 220 223 223 220 226 228 213 210 206 211 205 201
212 214 214 221 221 218 215 211 211 214 217 224 230 227 205 197 198 203 204 208 211 196
202 209 214 216 219 220 217 217 215 217 221 226 232 233 221 210 195 197 202 201 201 199
211 206 213 215 215 217 218 214 216 220 222 227 228 228 231 223 206 199 201 201 203 208
215 211 219 217 214 213 215 217 220 225 230 231 227 226 227 231 217 209 207 204 205 207
215 214 217 220 220 219 221 224 224 227 224 227 227 236 231 228 223 212 214 215 208 208
251 234 228 222 219 219 222 227 229 232 230 227 223 227 233 232 229 224 214 212 210 213
343 305 252 237 229 232 236 237 240 241 236 231 232 228 229 230 223 221 224 221 221 215
351 338 274 222 228 230 236 236 232 225 229 234 238 236 213 222 223 220 220 216 217 216
8 16 36 78 80 63 54 63 37 355 179 60 359 201 189 172 192 189 219 222 210 206
15 28 40 60 60 67 58 57 56 44 55 66 37 43 93 161 176 162 184 178 183 192
15 26 30 46 46 54 59 64 49 51 46 56 45 38 45 61 60 60 54 50 47 48
21 27 32 30 36 41 47 60 58 56 48 50 49 39 43 46 47 51 49 46 42 41
28 34 37 42 38 44 48 53 53 54 52 52 44 38 40 40 37 30 35 36 28 23